Theta_e
323 323 322 321 321 321 322 324 328 330 330 329 330 332 333 333 335 336 336 335 334 332 331 332 331 328 328 328 329 329 328 327 327 328 329 329 328 328 328 327 327 326 326 325 324 323 323 324 324 325 326 326 327 327 327 328 328 328 327 327 326 326 326 326 325 326 325 324 323 322 321 320 320 320
322 321 320 320 321 320 320 321 323 326 328 328 328 330 331 332 333 334 335 335 335 333 331 331 330 327 326 326 326 326 326 326 326 327 328 327 327 326 326 326 326 326 325 323 322 321 320 320 320 321 322 322 323 324 325 326 327 327 328 328 328 327 327 326 326 326 325 325 324 322 322 321 320 320
321 321 320 320 320 320 321 321 321 322 324 326 326 328 330 331 331 332 333 335 335 332 331 332 330 328 326 324 324 325 325 325 326 327 327 326 325 325 325 326 326 325 325 324 322 320 318 318 317 317 318 318 319 320 320 321 323 326 327 328 328 328 328 327 326 326 326 325 324 322 321 321 320 320
321 321 321 321 321 322 322 321 321 322 322 323 324 326 329 331 332 332 332 333 334 332 331 332 331 328 325 324 324 324 325 325 325 326 326 325 325 326 326 326 326 326 327 325 323 321 318 317 317 317 317 317 319 320 320 320 321 323 326 327 328 328 328 327 326 326 326 326 324 322 322 322 322 322
323 321 321 322 323 324 324 322 322 322 322 322 323 323 326 328 330 331 332 332 333 333 332 331 330 328 325 324 324 324 325 325 325 325 325 325 326 327 327 327 328 328 328 327 326 323 320 317 317 317 317 319 322 323 323 323 324 324 326 327 327 327 327 326 326 326 327 326 324 322 323 323 323 323
328 326 323 323 323 325 326 325 324 323 321 321 322 321 322 323 324 326 329 330 332 332 331 330 329 327 325 324 325 325 325 325 325 325 326 326 326 327 328 329 330 330 329 329 328 325 321 317 317 318 319 321 323 324 325 325 325 326 326 326 326 326 326 326 326 326 327 326 325 324 324 324 324 324
335 333 330 328 326 326 326 326 325 325 323 321 321 320 320 320 320 321 324 326 327 329 329 328 328 327 325 325 324 325 326 326 326 327 327 327 327 328 329 330 331 331 330 330 329 327 322 318 317 318 319 321 322 324 324 325 325 325 325 325 325 325 324 324 324 325 326 326 326 325 325 325 325 325
337 337 336 334 332 330 329 327 326 325 324 322 320 320 319 320 320 320 322 324 325 326 327 327 327 327 326 325 325 326 327 326 326 327 327 327 328 329 331 331 331 331 331 330 328 326 322 318 317 317 319 320 321 323 324 324 324 324 324 324 323 322 321 320 319 320 321 322 324 324 325 325 324 324
337 338 338 337 336 335 334 332 330 327 326 324 322 321 320 320 320 320 321 324 326 327 327 327 327 327 326 325 325 326 327 328 328 327 327 327 329 330 331 332 332 332 331 330 328 325 321 319 318 318 320 322 322 323 323 323 324 324 324 323 322 320 319 317 316 316 316 316 317 319 319 320 320 320
336 337 339 339 339 339 338 337 336 334 331 327 324 323 323 321 320 321 321 323 326 328 328 329 329 328 326 324 324 324 326 327 328 328 328 328 329 330 331 331 332 332 331 330 327 323 321 319 319 319 320 322 323 322 322 322 322 322 322 321 320 319 318 317 316 316 315 315 315 315 315 315 315 315
336 337 339 340 340 339 339 340 340 340 338 334 328 325 325 325 324 323 322 323 326 328 329 330 330 330 328 325 324 324 325 326 328 329 329 329 330 330 331 331 331 332 331 330 327 324 321 320 319 319 320 321 322 321 320 320 319 319 318 318 317 317 317 317 317 316 316 315 315 314 314 314 314 314
337 336 338 340 340 340 339 340 341 341 342 341 336 330 327 327 328 326 324 324 324 326 328 328 329 331 331 328 327 327 327 328 329 330 330 330 330 330 331 331 331 330 329 329 327 325 323 321 320 320 320 320 320 320 319 318 318 317 317 317 317 318 318 317 317 317 317 316 315 315 314 314 314 315
338 337 338 339 339 340 340 341 342 343 343 343 341 337 331 329 329 329 328 326 325 325 326 327 328 331 331 328 328 329 329 329 329 329 330 329 329 330 331 331 329 328 328 326 325 325 324 321 320 320 320 320 320 319 318 318 317 317 318 318 318 318 318 317 317 317 316 315 315 315 315 316 316 317
339 339 339 339 339 339 341 342 343 344 344 344 343 341 337 332 330 330 331 329 326 324 325 326 328 330 330 328 329 331 330 329 328 328 329 330 331 332 331 329 329 328 326 325 324 324 323 322 321 320 319 320 319 319 318 318 317 317 318 318 318 318 317 317 316 316 315 314 314 314 315 316 317 318
341 341 341 341 341 341 342 343 344 345 345 345 343 341 339 336 332 331 331 330 327 324 325 326 329 331 331 330 331 331 330 329 329 329 330 331 332 332 331 329 328 327 325 325 325 324 323 321 320 319 319 319 319 318 317 317 317 317 317 317 317 317 316 315 314 313 312 311 310 311 313 315 317 318
341 342 343 344 344 344 344 345 346 346 346 345 344 341 340 338 333 330 330 330 328 326 326 327 330 332 331 331 331 331 331 331 331 331 331 332 333 333 331 329 327 327 327 326 325 325 324 321 320 319 318 317 317 317 316 316 316 316 316 315 315 314 312 311 309 308 307 306 305 305 307 308 311 313
341 343 344 345 345 345 346 346 347 347 347 346 344 342 340 338 334 330 329 330 330 329 328 329 330 331 331 331 331 332 333 332 331 330 330 331 332 332 331 328 328 328 326 324 325 326 325 321 319 318 317 316 316 315 315 314 313 312 311 310 309 308 307 305 305 304 304 304 305 305 305 305 306 306
341 343 345 346 347 347 347 348 348 348 347 347 345 342 340 338 334 330 330 332 333 332 330 329 329 330 331 332 333 333 333 331 330 330 330 331 332 331 330 328 327 326 324 322 323 324 323 319 318 317 316 315 315 315 315 313 311 309 307 306 305 304 304 303 304 305 305 306 307 308 308 308 308 308
342 344 346 347 348 348 348 348 349 348 348 347 345 343 341 339 335 331 331 332 334 333 329 327 327 330 332 334 335 334 332 330 331 331 331 331 331 330 328 327 326 325 324 321 320 320 320 318 318 317 315 315 315 315 314 312 309 307 305 304 304 303 303 304 304 305 305 306 307 308 310 311 312 313
343 345 346 348 349 349 349 349 349 349 348 347 345 343 341 339 337 335 333 332 333 333 329 326 328 331 333 334 334 332 330 330 331 331 331 331 330 329 328 327 326 326 324 320 317 318 318 317 318 317 315 315 315 314 312 310 308 306 304 304 303 304 304 304 305 304 304 304 304 305 306 309 312 314
344 346 347 348 349 350 350 350 350 349 348 347 344 342 341 339 338 338 336 333 333 331 328 326 328 331 333 334 332 330 330 331 332 332 331 330 329 328 328 327 326 324 323 320 317 316 317 316 316 316 314 313 313 313 311 309 307 305 304 303 303 304 304 304 304 304 303 303 303 303 304 305 309 312
344 346 347 349 350 350 349 350 350 349 347 346 344 342 341 339 338 338 336 333 331 329 326 326 329 332 334 332 330 329 329 331 331 331 330 329 328 326 325 325 324 322 322 320 316 316 316 316 315 314 313 313 312 311 310 309 306 304 302 302 303 303 303 303 303 303 303 303 303 304 304 305 306 310
345 346 348 349 350 350 349 350 350 349 347 345 343 341 340 339 338 337 334 331 328 326 326 329 332 333 332 330 329 330 330 331 331 329 327 325 323 321 321 323 322 321 321 319 316 315 316 315 315 314 312 312 312 310 308 306 303 302 302 302 302 302 302 302 302 302 302 303 303 303 305 308 310 311
346 347 348 350 350 351 351 351 350 348 346 344 343 342 341 340 338 335 331 327 325 327 330 333 332 330 329 329 329 330 330 330 329 326 323 321 318 317 319 321 321 320 320 319 316 316 316 315 314 313 312 312 311 310 308 305 301 301 302 301 302 302 301 301 301 301 301 301 302 302 304 307 311 313
346 348 349 350 351 352 352 351 350 348 346 344 343 342 342 339 336 332 328 327 328 330 332 332 329 328 329 329 329 329 330 329 326 322 319 318 317 316 317 319 319 319 319 318 316 316 315 314 314 312 311 311 311 311 309 306 304 304 303 302 302 301 301 302 303 303 304 305 305 305 305 306 307 309
347 348 350 351 352 353 352 351 350 348 347 345 343 342 341 335 330 327 328 329 330 330 330 329 328 329 329 329 330 331 330 326 322 319 317 317 317 316 316 317 317 318 318 317 316 315 315 314 313 311 310 311 311 310 310 308 308 307 306 304 304 303 303 306 307 308 309 310 310 310 309 308 308 308
348 349 351 353 354 354 352 351 350 349 347 345 343 342 338 331 327 328 329 329 328 328 327 327 328 329 329 330 331 330 326 321 319 318 318 317 317 317 317 317 317 317 317 316 316 315 314 314 313 310 309 309 309 309 309 309 308 307 307 306 306 306 306 308 310 311 311 312 312 311 311 311 311 310
349 351 353 355 355 353 352 350 349 348 347 344 342 340 335 329 328 330 330 327 326 326 327 327 328 328 329 330 329 325 321 319 318 318 318 318 318 318 318 318 317 317 317 316 315 315 314 313 312 310 308 307 308 308 309 308 307 307 307 306 306 307 309 309 310 311 312 312 312 312 311 311 310 309
351 354 355 355 354 352 350 348 347 346 345 343 340 336 331 328 330 331 329 327 326 326 327 328 328 329 330 329 326 322 319 319 319 318 318 318 318 318 318 318 318 317 316 316 315 315 314 313 311 309 308 306 306 306 307 307 307 305 305 305 306 308 309 310 311 312 312 312 311 310 309 308 307 306
353 355 355 355 353 350 348 347 345 344 343 340 336 332 330 330 332 332 330 328 326 326 327 329 330 330 329 326 322 320 320 320 319 318 318 318 318 318 318 318 318 317 316 315 315 314 314 312 310 309 306 304 303 304 306 307 306 303 302 305 308 309 310 311 312 312 312 311 311 309 308 307 307 307
355 356 355 353 350 348 346 344 343 342 339 336 333 331 331 333 333 332 330 328 326 327 329 330 330 329 326 322 320 320 320 320 319 319 319 318 318 318 318 319 318 317 316 315 315 314 313 311 309 307 304 302 301 301 303 304 304 303 304 307 309 310 310 310 311 311 312 311 310 309 309 311 312 312
356 355 353 350 348 346 344 342 340 338 335 333 331 330 332 333 332 330 328 328 328 330 331 331 329 326 322 320 321 321 320 319 319 319 319 318 318 319 319 319 318 316 315 315 315 314 313 310 307 304 302 300 299 300 301 301 302 304 307 309 310 310 310 310 310 310 310 309 308 309 312 314 314 314
356 353 350 348 346 345 342 340 338 335 333 332 331 330 331 331 330 329 329 329 330 331 330 328 325 322 321 321 321 320 320 319 319 319 319 319 319 319 319 318 316 315 315 315 314 314 311 308 304 301 300 299 299 300 300 301 302 305 308 310 310 310 310 309 310 309 308 307 308 310 313 314 314 313
354 351 348 347 346 344 341 339 335 333 333 332 331 330 331 331 329 329 330 330 331 330 327 324 322 321 321 321 321 320 320 320 319 319 319 319 319 320 319 317 315 314 314 314 313 312 309 305 301 299 299 299 300 300 301 302 304 306 308 309 310 310 310 309 309 308 308 308 310 312 312 313 313 313
352 349 347 346 344 342 340 337 335 333 332 331 330 331 331 330 329 330 331 331 329 327 323 322 321 321 321 321 321 321 320 320 320 320 320 320 320 319 318 316 314 313 313 312 311 310 308 304 301 300 301 301 302 302 303 305 306 306 307 308 309 309 309 308 308 308 309 310 311 312 312 312 312 312
349 348 347 345 343 341 339 336 334 332 330 329 329 330 329 328 330 331 330 329 326 324 322 322 322 322 322 322 322 321 321 321 321 321 321 321 319 318 316 315 314 313 312 311 310 309 306 302 301 303 305 306 306 306 307 307 306 305 305 307 308 308 307 307 307 309 311 311 312 312 312 311 311 311
347 347 346 344 342 340 338 335 332 330 329 328 328 328 328 329 330 329 328 326 324 323 323 323 323 323 322 322 322 322 322 322 322 321 320 319 317 317 316 314 313 312 311 310 309 306 303 300 301 304 307 307 307 307 307 307 306 305 305 306 306 306 305 306 308 310 311 311 311 311 311 311 310 310
346 347 345 342 341 339 337 334 330 329 328 327 327 329 330 330 329 327 325 324 323 323 323 323 323 323 322 322 321 321 321 321 320 319 318 317 316 316 314 312 311 310 310 309 307 304 300 299 301 305 307 308 308 307 307 307 307 305 305 306 306 306 305 306 309 311 310 310 310 310 310 310 310 309
345 345 343 341 340 338 336 332 331 331 329 328 329 330 329 328 327 326 324 323 323 323 324 323 323 322 321 321 321 320 320 319 318 317 316 315 315 314 312 311 310 309 308 307 305 303 301 302 304 306 307 306 306 306 306 305 305 306 307 308 308 307 305 305 307 307 307 308 309 309 309 310 310 309
341 342 342 341 338 337 335 333 332 331 329 330 331 330 328 327 326 325 324 323 324 324 323 323 322 322 321 320 320 319 318 318 316 315 314 313 312 311 310 309 308 308 307 305 302 302 303 304 304 303 303 303 303 303 304 305 307 308 309 309 309 307 305 302 302 303 305 307 308 309 309 309 309 309
341 341 341 338 336 335 335 333 331 329 329 331 332 331 329 327 326 324 324 324 324 323 322 322 321 320 318 317 317 316 315 315 313 312 311 310 310 309 308 308 307 306 305 302 301 302 303 302 300 300 300 301 301 303 306 308 309 310 309 309 309 307 304 300 300 303 306 307 308 309 309 309 308 307
341 340 338 336 336 335 334 332 329 329 330 332 332 330 328 326 325 324 324 324 323 322 322 321 319 316 314 314 313 313 312 312 311 309 308 308 309 308 308 307 306 305 304 302 301 301 300 298 298 299 300 301 303 305 308 309 309 309 309 309 308 306 301 299 301 304 307 308 308 309 308 308 307 306
338 337 337 335 335 333 331 330 329 330 332 332 331 329 327 325 324 324 324 323 322 321 320 319 316 314 313 312 311 311 311 310 309 308 308 308 308 308 308 307 306 305 303 301 299 298 297 298 300 301 301 303 306 307 309 309 309 309 309 308 307 305 302 301 303 306 308 309 309 308 308 307 306 305
335 336 335 333 332 331 330 329 330 331 332 331 329 328 326 325 325 324 322 321 321 319 318 316 314 312 312 311 310 310 310 310 309 308 307 307 307 307 307 307 306 304 302 300 298 298 299 301 302 303 304 305 307 308 308 308 309 309 309 308 308 306 303 302 305 308 309 309 309 308 307 306 305 304
335 334 332 331 331 330 330 330 331 332 331 329 328 327 326 325 323 322 321 320 319 317 316 314 312 312 312 311 310 310 310 309 308 307 307 307 307 307 306 306 305 304 302 299 298 299 301 302 304 305 305 306 307 308 309 309 309 309 309 309 308 305 302 303 307 309 309 309 308 307 306 305 304 303
Wind_Speed
13 13 13 12 12 12 13 13 13 12 11 10 10 10 10 10 9 8 8 8 8 7 7 8 9 10 10 11 11 11 11 10 9 9 10 11 11 11 12 13 14 15 16 16 16 17 17 17 18 18 19 19 19 20 20 20 20 20 20 19 18 18 18 19 20 21 21 21 20 19 18 18 18 18
15 15 14 14 13 12 13 13 13 13 12 11 11 12 12 12 12 11 10 9 9 9 7 8 9 10 10 10 10 10 10 10 10 10 10 10 10 10 11 12 13 14 16 17 17 17 18 18 19 19 20 20 21 22 22 22 21 21 20 20 19 19 19 19 20 21 22 22 22 20 20 19 19 19
16 16 15 15 14 13 13 13 14 14 13 12 12 13 13 13 14 14 13 12 11 10 9 9 11 11 10 10 10 10 11 10 10 9 9 9 9 10 10 11 12 14 15 16 17 18 18 18 19 20 21 21 22 22 23 23 23 22 21 20 20 20 20 21 21 21 22 22 22 21 20 19 19 19
17 17 17 16 14 13 13 14 14 14 14 14 14 14 15 15 15 15 15 14 13 12 11 12 13 12 11 11 11 11 12 11 11 10 9 9 9 10 10 11 12 13 14 15 16 17 18 18 19 20 21 20 20 20 20 21 22 22 22 22 21 21 21 21 21 21 21 21 21 20 19 19 19 19
18 18 17 17 15 14 14 15 15 15 15 15 15 15 16 17 17 16 16 17 16 15 14 14 14 13 11 12 12 12 13 12 11 10 10 10 10 9 10 11 11 12 13 14 15 16 17 18 19 19 19 19 18 17 17 18 19 20 21 21 21 20 20 21 21 21 21 21 21 21 20 20 20 21
20 19 18 17 16 15 15 15 16 16 16 16 16 17 17 17 18 17 17 17 17 17 16 15 14 13 12 12 12 12 13 13 12 12 11 11 10 10 11 11 11 12 13 15 16 16 16 17 17 18 18 18 18 17 17 17 18 18 19 20 20 20 20 20 21 21 22 22 22 22 23 23 23 23
21 20 18 17 17 16 16 16 16 16 17 18 18 18 18 17 18 17 17 17 17 17 17 15 14 13 12 12 12 12 13 13 13 13 13 12 11 11 11 11 12 14 15 17 17 17 16 17 17 17 18 19 19 19 19 19 19 19 19 19 20 20 20 21 21 22 22 23 23 24 25 26 26 26
22 21 20 18 17 16 16 17 16 17 18 19 19 19 19 18 17 17 16 15 15 15 16 16 14 13 13 12 12 13 13 14 14 14 14 13 12 11 11 12 14 16 17 18 18 18 17 17 17 17 18 18 19 20 20 21 21 21 21 20 20 20 20 21 22 23 23 24 25 26 27 28 29 29
23 22 21 20 19 18 18 18 18 18 18 19 20 20 20 19 18 17 16 15 15 15 16 16 15 15 14 13 13 14 15 15 15 15 15 14 12 12 13 13 15 17 19 20 19 18 18 18 17 17 17 18 19 20 21 21 22 22 23 23 23 23 23 23 23 24 25 26 27 28 29 30 31 31
24 23 22 21 21 20 20 19 18 18 18 20 21 22 21 20 18 17 17 16 16 16 16 16 16 16 15 15 15 15 15 16 16 16 17 16 14 13 15 16 16 17 18 19 19 18 18 18 18 18 18 18 19 19 20 21 22 22 23 24 24 24 24 24 24 24 25 25 26 27 28 29 31 32
24 24 23 22 22 22 22 21 19 18 18 19 21 22 22 21 20 19 18 17 17 17 18 17 17 17 16 15 16 16 16 17 17 17 17 17 16 15 17 17 17 18 18 18 19 18 19 19 19 18 18 18 19 20 21 22 22 22 22 22 23 23 23 23 23 23 23 23 24 25 25 26 27 28
25 24 24 24 24 24 23 21 20 19 19 19 19 20 21 22 21 20 20 19 19 19 19 19 19 18 17 16 15 16 16 17 18 18 18 19 19 18 18 18 18 19 19 19 21 22 23 22 20 19 19 19 20 22 22 22 21 21 20 21 21 21 21 22 22 23 23 24 24 25 25 25 25 25
25 25 24 25 25 24 23 21 21 20 20 20 19 18 19 21 22 22 21 21 20 20 20 20 19 18 18 17 16 16 17 17 18 19 20 21 21 20 20 20 19 19 20 22 25 26 24 21 20 21 21 21 21 21 20 20 19 19 20 21 21 21 22 22 23 23 24 24 25 25 26 25 25 24
26 25 24 24 24 24 24 23 23 22 22 22 20 19 19 20 21 22 23 23 22 21 21 21 19 19 20 18 16 16 18 19 20 21 21 22 21 20 22 23 20 19 21 24 26 24 21 19 21 23 23 23 22 21 20 19 19 19 20 21 21 22 22 22 23 24 25 26 26 26 27 27 26 25
27 25 24 23 24 24 25 24 23 23 23 22 21 21 20 20 21 22 23 24 23 23 22 21 19 19 19 18 16 18 20 20 20 21 21 21 21 21 23 23 22 21 21 22 22 21 20 21 22 24 24 24 23 23 22 21 20 21 21 22 22 23 24 25 26 26 27 28 28 28 28 28 29 29
27 25 25 24 24 25 24 23 23 24 22 21 22 23 23 21 21 22 22 23 24 23 22 20 19 18 18 18 18 19 20 20 21 21 21 21 21 21 22 22 21 20 19 19 19 18 18 19 22 24 24 23 23 23 23 22 22 23 23 24 24 25 25 25 25 26 25 25 25 26 26 28 30 31
27 27 26 25 25 25 23 22 23 23 22 21 21 23 24 23 22 22 22 23 23 23 21 20 19 19 19 19 19 19 19 21 22 22 21 22 21 21 21 21 19 18 18 19 16 14 15 18 21 23 22 22 22 22 23 23 23 24 24 24 24 23 22 22 21 21 21 21 21 22 23 24 25 27
28 28 27 26 25 24 22 22 23 22 21 20 20 21 24 25 23 22 23 23 23 23 22 21 20 20 19 19 18 19 20 21 22 22 22 22 20 19 20 20 19 19 18 18 16 14 16 19 19 19 20 21 21 22 22 23 23 23 23 21 21 20 19 19 19 19 19 20 20 21 22 23 23 23
29 29 28 27 27 25 23 23 22 21 20 19 19 20 24 25 23 22 23 24 23 23 23 22 20 19 19 19 19 21 21 21 21 20 19 19 18 18 18 17 16 15 15 16 17 17 17 16 16 17 20 21 22 22 22 23 22 21 20 19 19 19 19 19 20 20 20 20 21 22 23 23 23 23
30 30 29 29 28 26 23 23 21 19 19 20 20 21 24 24 20 19 22 23 22 22 22 21 19 18 19 19 20 21 20 19 19 17 16 16 16 16 14 12 11 10 12 15 16 16 15 14 15 19 21 23 23 22 21 21 20 20 19 19 20 20 20 21 21 21 21 21 21 23 24 25 25 24
30 31 31 31 29 26 24 22 20 18 19 20 20 21 24 23 18 16 20 21 20 21 21 20 18 17 18 19 20 19 17 16 16 16 15 14 12 10 10 10 10 10 11 13 13 13 14 15 18 21 23 24 25 23 21 21 21 21 21 21 21 22 23 23 24 23 22 21 20 21 22 24 25 26
31 32 32 31 28 25 23 21 19 19 19 19 20 21 23 21 18 17 19 20 20 20 20 19 17 17 18 19 18 15 13 13 14 14 13 10 9 10 11 11 11 10 10 11 11 12 14 17 19 22 24 24 23 23 23 22 21 22 23 24 25 25 25 25 25 24 24 22 21 20 20 21 23 24
33 34 33 31 27 25 23 21 20 19 20 20 20 21 21 18 16 17 18 19 20 20 19 17 16 16 18 18 16 14 13 13 13 13 11 10 11 12 11 10 9 8 8 10 12 13 15 18 19 21 21 20 21 23 25 24 22 22 24 26 27 28 27 27 26 25 24 22 21 20 18 18 19 21
35 36 34 30 27 25 23 21 20 20 21 21 21 21 21 19 17 17 18 19 19 18 16 16 16 17 17 17 16 15 14 13 12 11 11 11 11 11 9 8 8 7 7 11 14 15 16 18 20 21 20 19 21 24 25 25 24 24 26 27 28 28 28 28 27 26 24 23 21 19 17 17 18 20
37 37 33 28 25 24 23 22 22 22 22 23 22 23 23 21 19 17 17 18 18 16 16 16 16 16 16 16 17 16 14 13 12 11 10 9 9 9 8 8 8 7 8 12 15 16 17 19 20 20 20 20 20 21 24 27 27 26 27 29 29 29 27 25 24 23 22 21 20 18 17 17 18 20
38 35 30 25 23 22 22 23 23 23 23 23 23 23 22 20 18 18 18 18 17 16 16 16 17 16 15 16 17 15 13 12 11 9 9 8 7 7 7 7 8 8 9 13 15 17 18 20 20 20 19 19 20 21 23 26 25 25 27 29 28 27 25 23 21 20 18 19 19 19 19 19 18 19
36 31 27 24 21 21 23 24 23 23 24 23 23 22 21 20 20 21 20 18 17 16 16 16 16 16 15 15 16 14 12 11 10 9 8 7 7 7 7 8 9 10 11 14 17 18 19 21 22 22 20 20 22 22 22 23 24 25 27 27 27 24 22 20 20 20 20 20 21 22 23 23 23 22
32 28 25 23 21 22 24 24 24 24 24 24 24 23 21 22 24 24 21 18 17 16 17 16 16 15 15 15 14 12 11 10 10 9 8 8 7 7 8 9 11 12 12 14 17 18 20 22 22 22 22 23 23 23 23 24 25 26 27 27 26 23 21 20 21 20 21 22 24 26 27 27 27 26
30 27 26 24 23 24 25 25 24 24 24 25 25 23 23 25 27 25 21 19 17 17 17 16 16 16 16 15 13 11 10 10 10 9 9 8 8 9 10 11 13 14 14 15 17 19 21 22 22 22 23 24 25 24 23 24 26 27 27 27 26 24 22 21 20 21 23 25 26 27 28 29 29 28
30 28 27 25 25 26 26 25 24 24 25 26 25 24 25 27 27 25 22 20 18 17 17 17 17 17 15 14 12 11 10 10 11 10 10 10 10 11 11 12 14 15 15 16 18 20 21 22 22 22 24 25 25 24 23 24 26 28 27 25 24 24 23 22 21 22 24 25 26 29 30 30 29 27
33 30 28 27 29 28 26 25 24 25 27 27 27 26 27 28 26 23 21 19 17 17 17 17 17 16 15 13 12 11 10 11 11 11 10 11 11 12 13 14 14 15 17 18 20 21 21 21 21 22 23 24 24 23 23 24 26 27 26 23 22 23 24 23 23 23 23 24 27 31 30 27 24 24
37 33 31 32 32 30 28 28 28 29 29 29 29 29 29 28 25 23 20 18 17 18 18 18 17 16 15 13 12 11 11 11 11 11 11 12 12 14 15 15 15 16 18 20 22 22 22 21 21 22 22 23 23 24 24 24 24 24 23 22 21 22 24 24 24 24 25 27 30 30 26 22 21 21
39 37 37 37 36 34 32 33 33 33 32 32 31 31 29 27 24 21 20 19 19 19 19 17 16 15 14 13 12 12 12 12 13 13 13 13 14 15 16 16 16 17 18 20 21 23 22 20 20 21 21 22 23 23 22 23 23 21 20 20 20 23 25 25 25 27 29 31 31 28 24 22 22 23
42 42 42 41 39 37 37 37 36 36 35 34 32 31 28 25 23 21 20 19 19 19 18 17 17 16 15 14 14 14 14 15 15 15 15 16 16 16 17 17 17 18 19 19 20 21 21 20 19 20 21 22 23 23 21 19 18 18 19 19 19 22 25 26 27 29 30 29 27 25 24 24 25 26
46 47 47 43 41 40 39 37 36 36 35 34 32 30 28 25 23 22 21 21 20 19 18 18 17 17 16 15 15 15 15 16 17 17 17 17 16 16 17 17 17 17 18 18 18 19 21 21 19 19 20 21 23 24 22 19 16 17 20 20 20 22 25 28 30 30 27 24 22 23 25 28 29 29
49 49 47 45 43 41 39 36 36 36 35 33 31 29 27 25 23 23 22 21 20 19 19 18 17 16 15 15 15 15 16 17 18 18 17 16 15 16 17 18 19 19 18 18 18 19 20 20 18 16 16 17 18 20 20 20 21 22 22 23 24 26 28 30 30 27 23 22 22 24 28 31 33 34
47 44 42 43 43 40 37 36 36 35 33 31 29 28 26 24 24 23 22 21 20 19 18 17 17 16 15 15 15 15 15 16 17 17 15 15 15 16 17 17 17 17 17 17 18 19 20 19 16 14 13 14 15 17 18 19 22 24 25 26 28 28 29 29 27 24 22 23 25 27 30 33 36 40
42 39 40 41 41 38 36 36 36 34 32 30 29 27 26 25 24 23 22 21 20 19 18 17 17 16 15 15 15 16 16 16 16 15 15 15 15 16 16 15 14 13 14 15 17 18 18 17 15 12 12 13 15 17 18 20 22 24 25 26 28 29 29 28 26 25 26 27 27 29 30 33 38 42
37 36 39 40 38 37 36 36 35 33 31 30 29 28 27 26 24 23 23 22 20 19 18 18 18 16 16 17 17 17 18 17 16 14 14 13 14 15 14 13 11 12 13 15 16 16 16 15 13 12 13 14 16 18 20 23 25 24 23 23 25 27 28 27 27 30 31 30 30 32 33 33 35 36
37 38 41 41 38 36 35 34 33 31 30 30 29 28 26 25 24 24 23 22 21 20 19 18 17 16 17 18 18 18 17 17 15 14 12 12 12 12 11 10 11 13 14 15 15 14 14 14 14 14 15 17 18 20 22 23 23 21 20 21 23 26 28 28 28 30 31 31 33 35 36 35 33 31
39 40 41 41 37 34 33 33 32 31 31 30 29 26 24 24 24 23 22 22 20 20 19 17 17 16 17 18 18 17 16 15 14 12 11 9 9 10 11 12 13 13 13 14 15 15 15 16 16 16 16 17 18 19 20 19 19 19 19 21 23 25 28 28 26 26 27 29 31 31 29 30 30 30
36 37 38 37 35 33 33 33 32 32 31 29 27 25 24 24 23 22 21 20 19 18 17 16 16 15 16 16 17 15 14 13 12 10 8 7 7 8 10 11 10 10 12 14 15 16 18 18 17 16 16 16 17 17 17 17 18 20 21 22 24 27 29 29 27 26 27 27 26 25 26 29 31 31
36 36 36 36 35 34 34 34 33 31 30 28 27 26 26 25 24 22 21 20 18 17 16 15 15 15 15 15 15 14 13 11 11 9 8 7 6 6 7 7 9 11 13 15 17 19 19 18 16 15 16 15 15 16 17 17 18 20 22 23 26 29 31 30 29 28 25 24 25 28 31 33 35 36
38 38 37 36 35 34 34 33 32 30 29 28 27 26 25 24 22 21 19 18 17 16 15 14 14 14 14 14 14 13 12 11 10 9 7 6 7 7 8 9 11 13 14 15 18 19 18 17 15 14 15 14 14 15 16 17 19 20 21 23 26 29 30 31 31 28 23 22 25 29 32 33 35 37
38 38 37 35 34 33 32 31 29 28 28 28 27 25 23 21 20 19 18 17 16 14 14 14 14 14 15 15 14 13 12 11 10 8 7 6 6 7 8 10 12 14 14 15 17 18 17 16 14 13 14 14 14 14 16 17 19 20 21 22 24 27 30 31 29 26 24 24 25 28 31 33 34 35
Wind_Direction
234 238 241 241 243 245 244 242 242 244 250 253 249 244 241 241 245 251 261 269 270 272 271 272 281 285 280 277 277 277 279 281 282 279 279 282 284 286 287 290 293 297 300 303 304 304 302 300 297 295 294 292 291 289 288 288 288 289 288 286 285 284 283 283 284 283 283 281 279 277 276 274 271 270
233 235 239 241 242 243 246 248 248 249 251 253 253 253 252 250 248 250 261 271 272 273 275 279 290 294 288 281 279 278 279 281 282 281 282 284 286 286 289 294 299 303 306 307 307 305 303 301 299 298 296 294 293 291 290 289 289 289 288 286 285 284 283 282 281 280 280 280 279 277 276 276 274 272
232 234 236 239 241 242 244 248 251 254 255 254 254 254 253 253 253 255 261 266 268 273 279 286 293 295 288 282 281 279 280 282 282 281 279 279 279 283 293 302 307 309 310 308 306 303 301 300 299 298 297 295 292 290 288 288 288 289 288 286 285 284 283 283 282 279 278 277 277 275 273 273 273 274
234 234 236 238 239 240 242 246 250 254 256 256 255 253 253 253 255 258 260 262 266 273 279 286 292 292 285 280 279 277 279 282 281 280 276 272 276 288 299 306 309 312 313 312 309 305 302 301 299 298 297 295 293 289 286 285 284 285 286 286 285 283 283 283 282 280 277 275 274 271 269 270 271 273
236 235 237 239 239 240 242 244 248 251 254 256 257 256 255 255 257 259 260 263 268 273 277 281 285 285 279 276 276 274 275 276 276 274 269 268 277 291 299 303 307 313 316 317 315 309 305 302 300 297 295 295 293 289 285 282 280 280 281 282 282 282 282 283 282 280 277 274 271 267 267 270 272 274
238 238 239 241 242 243 245 246 248 250 252 254 256 259 259 260 262 261 261 264 267 271 276 277 276 276 275 272 270 268 265 266 267 265 262 266 274 284 292 301 310 317 320 320 319 314 308 303 300 296 292 291 291 289 285 281 278 276 275 275 276 277 278 279 280 279 276 273 269 265 265 269 273 275
241 241 242 244 245 246 249 251 253 254 255 255 256 259 262 264 266 264 262 264 265 268 273 273 270 271 272 271 268 265 261 260 261 258 257 263 271 281 292 306 317 323 325 325 322 317 310 304 300 296 291 287 287 287 286 284 281 277 274 272 271 272 273 274 275 275 274 273 270 267 266 268 271 273
246 246 246 248 250 251 253 254 256 257 258 259 259 260 262 263 265 265 262 261 262 263 266 269 269 269 270 269 266 263 260 258 256 253 255 262 271 283 297 308 317 324 328 327 324 318 312 307 303 300 294 287 284 283 283 283 283 281 279 277 275 275 276 277 276 275 273 272 270 269 269 270 271 271
247 248 249 250 251 253 254 256 257 257 258 259 260 260 261 261 261 263 262 259 256 257 261 266 268 266 267 266 262 259 259 258 255 253 258 264 273 285 296 303 310 321 328 327 324 321 316 311 308 305 299 291 286 284 283 283 283 282 281 281 281 282 283 283 281 279 276 273 271 270 269 269 269 269
247 247 248 249 250 251 253 254 256 257 258 258 257 257 258 259 259 259 259 258 255 255 259 263 264 264 265 265 263 260 258 258 257 257 262 267 271 280 288 294 304 317 323 323 323 322 317 312 311 309 304 298 292 290 289 289 287 286 285 284 284 285 285 284 283 281 279 276 274 272 270 268 267 266
246 246 245 246 248 249 250 251 252 254 255 255 255 255 256 257 257 256 257 256 254 255 259 261 264 266 266 264 263 262 260 259 258 259 264 269 271 277 283 290 303 315 317 317 319 319 315 310 308 307 304 301 298 297 296 296 294 291 289 287 286 286 286 287 286 285 283 282 280 278 275 272 270 267
245 244 243 243 245 246 248 249 251 251 252 253 254 253 253 255 256 255 255 255 253 254 257 261 265 267 267 264 263 264 262 260 261 262 264 268 272 278 284 290 299 306 310 312 313 315 313 306 302 302 302 301 301 300 300 300 299 295 291 289 288 289 290 290 289 288 287 286 285 283 280 277 275 273
244 243 242 242 243 245 248 249 250 251 253 254 253 251 251 253 255 256 255 255 254 253 254 258 261 263 265 266 265 265 264 263 264 265 266 267 271 278 285 290 294 298 303 305 307 311 309 300 296 299 301 302 303 302 302 302 299 296 293 291 291 291 291 290 289 288 286 285 284 282 280 278 275 274
242 243 244 244 244 246 248 248 248 250 254 256 256 253 249 249 251 254 253 253 252 251 251 254 256 258 263 267 266 263 265 267 268 269 270 272 275 281 286 290 294 299 302 302 303 306 302 294 296 301 304 308 309 308 308 305 300 296 293 292 291 291 289 287 286 285 283 282 279 277 275 273 271 268
242 244 246 245 243 243 245 247 249 251 256 259 258 252 246 243 244 246 248 249 249 248 249 251 253 256 261 265 263 265 271 275 275 274 274 277 282 285 286 290 297 301 302 300 299 299 296 296 301 304 307 311 310 308 308 305 301 296 292 291 290 288 287 286 285 284 283 280 278 274 270 267 265 263
242 244 245 244 241 241 242 245 250 254 258 261 258 251 245 241 238 239 242 245 246 246 247 247 248 253 259 261 264 272 279 280 278 276 276 280 285 286 285 290 297 300 300 299 296 294 296 301 304 306 308 310 307 307 308 305 300 297 294 292 291 289 288 288 287 286 285 283 281 278 273 269 265 263
241 243 244 244 242 240 239 241 248 255 259 261 260 252 244 238 234 233 235 238 241 243 243 243 245 249 255 261 268 277 281 281 280 278 278 282 285 285 284 288 293 296 297 298 295 292 297 304 305 306 310 311 310 310 309 306 302 298 296 294 293 293 294 294 294 293 292 291 289 286 284 280 275 272
241 243 244 244 242 240 238 239 247 256 259 259 258 251 241 235 231 229 230 233 235 236 236 238 243 249 256 262 268 275 279 280 280 279 279 281 281 281 282 287 292 293 293 295 295 294 300 305 307 310 313 314 312 311 309 306 304 302 301 301 301 303 303 302 301 299 297 295 292 290 289 288 286 284
241 243 245 245 243 240 238 239 245 255 258 255 255 249 238 231 229 229 230 232 234 235 235 236 241 249 257 261 267 274 278 280 279 278 277 275 275 278 284 289 292 290 289 295 297 297 301 306 307 310 313 312 311 310 309 308 308 308 308 309 309 310 309 306 304 301 298 293 288 285 284 283 283 284
241 243 243 244 243 242 240 241 244 250 253 250 250 243 232 227 227 228 231 232 233 235 236 235 238 245 252 260 269 276 280 279 275 271 269 270 274 279 284 286 287 285 287 296 300 298 301 307 308 309 313 313 311 312 312 312 313 313 313 314 315 314 313 310 307 304 302 297 291 285 280 277 276 277
240 241 241 242 244 245 245 244 242 243 245 243 242 235 227 224 223 226 231 231 229 230 231 230 233 240 250 261 269 275 276 271 265 262 266 273 273 271 274 276 280 282 285 293 300 299 301 309 312 313 317 317 315 316 318 318 317 317 318 319 318 317 316 313 311 309 307 304 298 291 284 279 274 271
241 240 241 242 244 245 245 242 238 237 237 236 233 229 224 222 220 222 226 225 222 223 223 223 229 239 252 261 265 267 265 260 258 260 266 270 260 258 267 273 278 284 283 286 299 304 305 312 317 317 320 320 317 317 320 321 322 323 324 324 321 319 317 315 313 311 308 305 301 295 289 284 278 273
241 240 239 240 241 241 240 237 231 228 228 227 226 224 222 220 218 219 223 222 218 217 217 221 233 244 252 257 257 257 258 256 257 260 263 263 261 265 270 266 269 281 280 283 300 308 310 315 319 319 319 317 313 316 320 323 326 326 325 323 321 319 318 316 313 311 308 304 300 295 290 286 283 279
241 240 239 237 236 235 235 231 223 219 220 221 220 222 224 223 221 221 222 218 213 212 218 229 239 244 246 248 249 253 255 255 259 262 262 263 267 271 266 255 261 276 276 283 300 310 312 316 319 319 317 312 309 313 318 322 326 327 325 324 321 320 321 320 317 315 312 309 304 297 289 282 278 278
240 241 239 236 233 231 230 223 214 214 218 218 218 223 227 227 224 220 213 205 203 209 222 231 236 239 241 243 245 250 254 258 261 262 261 264 267 267 257 249 259 272 275 286 303 312 314 317 319 316 314 309 306 308 312 316 322 324 324 324 324 325 326 324 321 320 319 318 316 309 299 287 276 273
238 239 238 234 231 228 223 218 213 214 217 218 220 224 224 220 214 205 197 196 201 210 220 227 230 234 237 239 243 247 252 255 254 252 254 256 257 259 258 257 265 274 280 293 307 314 314 318 318 314 310 306 304 306 308 312 316 317 318 321 323 326 328 324 320 320 321 319 317 313 308 301 292 284
234 235 233 229 227 222 218 215 213 214 216 218 219 219 216 209 199 192 191 197 205 213 221 226 230 233 235 237 242 246 246 242 238 237 242 246 249 257 266 271 278 283 290 299 308 313 315 316 316 313 309 304 304 305 306 308 310 312 314 316 319 322 324 320 315 314 314 313 311 310 308 305 302 298
228 227 224 222 220 217 214 212 212 213 215 215 214 212 208 201 193 189 192 202 212 219 225 229 232 235 235 238 241 240 231 228 230 232 236 241 249 261 269 276 282 287 294 301 307 311 312 313 312 311 309 305 304 304 304 305 308 310 312 315 318 320 318 315 315 312 309 309 309 308 307 305 303 302
219 217 218 218 214 211 209 207 207 210 210 209 208 207 203 196 192 192 197 208 218 225 229 231 232 233 236 239 237 229 223 226 232 233 234 241 251 260 269 278 284 289 293 299 305 309 310 310 310 308 306 305 303 302 302 303 306 308 311 315 319 320 318 316 315 310 307 307 307 306 306 306 304 302
211 212 214 211 205 204 206 206 206 206 204 202 201 200 197 195 194 196 203 213 224 231 233 231 229 230 234 235 229 224 225 229 231 232 237 247 255 263 272 282 288 291 294 300 306 309 310 309 308 305 304 303 302 301 301 301 303 307 313 315 315 316 317 316 312 308 307 306 306 307 308 308 305 302
206 207 206 201 198 199 202 203 202 200 198 196 195 193 193 196 198 202 210 220 230 234 230 225 224 226 230 229 225 225 227 230 233 238 245 253 261 269 278 285 287 290 295 302 307 310 310 308 305 303 302 301 301 300 301 300 301 306 313 315 311 309 312 313 311 308 305 303 306 309 309 307 302 297
203 203 196 191 192 194 195 193 192 192 192 192 193 193 194 197 201 207 215 223 225 222 219 219 221 223 225 224 224 227 230 234 240 246 253 260 266 272 280 283 283 287 295 303 308 310 309 306 304 302 301 300 301 302 302 302 303 305 308 309 308 307 309 312 310 307 306 307 309 310 306 299 295 293
202 199 190 187 190 192 191 189 189 190 190 190 192 194 196 199 205 212 217 217 215 212 213 216 218 219 221 223 225 229 232 239 246 252 258 264 267 271 276 278 279 284 292 300 304 306 306 304 302 302 301 301 302 302 300 301 304 305 304 304 306 307 310 312 309 307 310 311 311 307 300 294 294 294
200 193 187 188 192 191 190 189 190 191 191 190 190 193 196 201 207 212 212 209 210 211 212 212 213 216 221 225 229 231 235 241 249 253 257 262 267 270 273 275 278 284 292 299 303 304 304 304 304 304 305 307 308 307 305 300 300 306 309 307 306 308 310 312 312 311 311 311 307 302 299 296 296 295
197 189 187 190 190 189 189 191 193 192 191 190 190 193 198 203 205 205 206 207 209 209 208 209 213 219 225 229 232 235 238 244 250 254 258 263 266 268 270 275 278 283 291 299 301 302 304 306 307 308 310 313 314 315 317 312 307 315 320 315 310 311 313 314 315 313 311 309 304 299 299 300 299 297
192 187 189 190 187 186 188 190 192 192 191 190 191 194 198 201 201 203 206 207 207 207 208 212 217 222 227 231 236 240 242 246 251 255 258 261 264 269 274 279 283 287 292 296 299 301 303 304 306 306 307 308 308 309 313 312 310 318 325 321 317 318 319 318 317 314 310 307 305 301 300 300 299 299
188 188 193 192 186 184 186 187 189 190 190 190 192 193 196 199 200 202 204 204 204 207 211 215 220 224 229 233 237 241 243 244 248 253 257 260 266 273 278 280 284 289 292 295 299 301 301 303 304 301 297 298 298 298 301 305 309 317 324 323 321 322 324 322 318 312 308 307 305 302 300 299 300 305
188 192 196 194 187 183 183 184 186 187 188 189 190 191 194 197 199 200 199 200 204 209 213 218 223 227 230 233 236 238 239 240 244 248 255 262 268 273 275 276 279 284 289 294 299 301 302 305 305 297 290 289 292 296 300 303 307 314 320 322 322 325 328 326 318 311 309 308 306 303 302 302 305 310
191 197 198 196 190 184 181 183 186 187 187 188 189 190 191 193 194 194 195 199 205 211 215 221 225 227 231 234 237 238 238 239 242 245 250 257 265 269 272 272 273 280 289 295 299 300 302 304 300 292 288 288 290 295 300 302 306 314 322 325 323 324 327 326 319 314 313 312 312 312 312 311 311 310
189 195 197 197 192 183 179 182 184 185 184 186 189 190 189 189 190 192 195 201 208 212 216 221 225 229 234 236 235 235 236 237 239 241 243 251 259 263 262 264 276 287 293 296 299 299 299 297 294 292 293 294 296 300 302 304 310 318 323 322 318 319 325 328 325 319 317 318 320 321 320 318 315 312
185 190 193 194 188 180 178 179 180 181 185 188 190 188 186 186 189 193 199 205 209 212 216 223 229 233 236 235 231 228 229 232 233 234 236 241 250 258 263 272 285 293 294 296 299 299 297 297 298 300 302 303 305 306 305 306 309 311 314 316 316 319 326 331 330 324 321 323 325 323 319 317 315 313
182 186 191 191 184 179 179 180 180 182 186 188 187 184 183 186 190 195 201 204 208 212 219 226 233 234 233 232 229 225 223 223 223 223 224 223 232 255 274 284 291 293 294 296 297 298 300 303 306 308 310 311 309 306 303 302 305 310 313 316 319 324 331 335 335 331 328 329 329 321 316 317 317 313
181 183 186 187 183 180 179 180 181 183 185 184 183 182 184 187 191 196 200 204 208 215 222 230 234 232 229 228 226 219 213 212 214 215 217 217 221 239 264 281 287 290 294 297 299 303 307 309 310 312 313 311 305 300 299 302 307 312 316 318 323 330 334 337 338 337 334 333 332 326 321 321 319 316
181 180 180 181 180 178 178 180 182 183 183 181 181 183 186 190 194 198 202 206 212 219 226 231 232 228 224 222 219 214 210 210 212 215 219 223 232 247 261 276 286 292 297 300 304 307 309 308 308 310 310 307 301 297 300 306 310 315 318 321 325 330 334 337 340 339 336 334 331 327 324 323 320 317
178 177 176 177 178 177 179 181 182 181 180 180 181 184 186 190 194 197 202 209 216 223 227 227 223 219 217 215 214 214 215 215 216 218 220 223 239 257 270 281 288 293 298 302 305 306 306 306 306 306 306 305 302 299 303 308 313 317 321 323 325 330 336 341 341 337 333 334 332 328 328 328 325 324